Time,TemperatureF,DewpointF,PressureIn,WindDirection,WindDirectionDegrees,WindSpeedMPH,WindSpeedGustMPH,Humidity,HourlyPrecipIn,Conditions,Clouds,dailyrainin,SoftwareType,DateUTC
2013-03-14 00:03:00,56.5,33.6,30.30,East,93,6.0,9.0,42,0.00,,,0.00,meteohub,2013-03-14 05:03:00,
2013-03-14 00:09:00,56.1,34.0,30.30,SE,141,1.0,9.0,43,0.00,,,0.00,meteohub,2013-03-14 05:09:00,
2013-03-14 00:14:00,55.8,34.2,30.30,SE,125,2.0,8.0,44,0.00,,,0.00,meteohub,2013-03-14 05:14:00,
2013-03-14 00:20:00,55.6,34.5,30.30,South,189,2.0,8.0,45,0.00,,,0.00,meteohub,2013-03-14 05:20:00,
2013-03-14 00:25:00,55.0,34.7,30.30,SSE,162,0.0,7.0,46,0.00,,,0.00,meteohub,2013-03-14 05:25:00,
2013-03-14 00:30:00,54.7,34.3,30.30,SE,127,1.0,7.0,46,0.00,,,0.00,meteohub,2013-03-14 05:30:00,
2013-03-14 00:35:00,54.3,34.0,30.30,SE,146,0.0,7.0,46,0.00,,,0.00,meteohub,2013-03-14 05:35:00,
2013-03-14 00:41:00,54.5,34.2,30.30,ESE,111,0.0,5.0,46,0.00,,,0.00,meteohub,2013-03-14 05:41:00,
2013-03-14 00:46:00,54.5,34.7,30.30,ESE,115,0.0,5.0,47,0.00,,,0.00,meteohub,2013-03-14 05:46:00,
2013-03-14 00:52:00,54.1,34.9,30.30,ESE,115,0.0,5.0,48,0.00,,,0.00,meteohub,2013-03-14 05:52:00,
2013-03-14 00:57:00,54.1,34.9,30.30,SE,127,3.0,5.0,48,0.00,,,0.00,meteohub,2013-03-14 05:57:00,
2013-03-14 01:02:00,54.0,34.7,30.30,SE,124,0.0,7.0,48,0.00,,,0.00,meteohub,2013-03-14 06:02:00,
2013-03-14 01:07:00,54.0,35.2,30.30,SE,136,2.0,7.0,49,0.00,,,0.00,meteohub,2013-03-14 06:07:00,
2013-03-14 01:12:00,54.0,35.2,30.30,ESE,119,4.0,7.0,49,0.00,,,0.00,meteohub,2013-03-14 06:12:00,
2013-03-14 01:17:00,54.0,35.2,30.30,ESE,119,1.0,7.0,49,0.00,,,0.00,meteohub,2013-03-14 06:17:00,
2013-03-14 01:22:00,53.8,35.1,30.30,ESE,116,1.0,7.0,49,0.00,,,0.00,meteohub,2013-03-14 06:22:00,
2013-03-14 01:27:00,53.8,35.1,30.30,East,101,2.0,7.0,49,0.00,,,0.00,meteohub,2013-03-14 06:27:00,
2013-03-14 01:32:00,53.4,35.2,30.30,ESE,115,0.0,7.0,50,0.00,,,0.00,meteohub,2013-03-14 06:32:00,
2013-03-14 01:37:00,53.2,35.6,30.30,ESE,115,0.0,7.0,51,0.00,,,0.00,meteohub,2013-03-14 06:37:00,
2013-03-14 01:42:00,53.1,35.4,30.30,SE,126,0.0,4.0,51,0.00,,,0.00,meteohub,2013-03-14 06:42:00,
2013-03-14 01:47:00,53.1,34.9,30.30,SSE,165,1.0,4.0,50,0.00,,,0.00,meteohub,2013-03-14 06:47:00,
2013-03-14 01:52:00,52.9,35.2,30.30,ESE,116,0.0,6.0,51,0.00,,,0.00,meteohub,2013-03-14 06:52:00,
2013-03-14 01:57:00,52.5,34.9,30.30,SE,130,0.0,6.0,51,0.00,,,0.00,meteohub,2013-03-14 06:57:00,
2013-03-14 02:02:00,52.3,35.2,30.30,ESE,116,0.0,6.0,52,0.00,,,0.00,meteohub,2013-03-14 07:02:00,
2013-03-14 02:07:00,52.2,35.1,30.30,ESE,119,0.0,4.0,52,0.00,,,0.00,meteohub,2013-03-14 07:07:00,
2013-03-14 02:12:00,51.8,35.2,30.30,ESE,119,0.0,4.0,53,0.00,,,0.00,meteohub,2013-03-14 07:12:00,
2013-03-14 02:17:00,51.6,35.6,30.31,ESE,119,1.0,3.0,54,0.00,,,0.00,meteohub,2013-03-14 07:17:00,
2013-03-14 02:22:00,51.4,35.8,30.31,ESE,120,0.0,3.0,55,0.00,,,0.00,meteohub,2013-03-14 07:22:00,
2013-03-14 02:27:00,51.1,35.4,30.31,SE,132,0.0,2.0,55,0.00,,,0.00,meteohub,2013-03-14 07:27:00,
2013-03-14 02:32:00,50.7,35.6,30.30,SE,133,0.0,2.0,56,0.00,,,0.00,meteohub,2013-03-14 07:32:00,
2013-03-14 02:38:00,50.7,35.1,30.30,SE,146,0.0,2.0,55,0.00,,,0.00,meteohub,2013-03-14 07:38:00,
2013-03-14 02:43:00,51.1,35.1,30.30,SE,140,1.0,4.0,54,0.00,,,0.00,meteohub,2013-03-14 07:43:00,
2013-03-14 02:48:00,51.1,35.4,30.30,SSE,156,0.0,4.0,55,0.00,,,0.00,meteohub,2013-03-14 07:48:00,
2013-03-14 02:53:00,50.9,35.2,30.30,South,173,0.0,4.0,55,0.00,,,0.00,meteohub,2013-03-14 07:53:00,
2013-03-14 02:58:00,50.7,35.6,30.30,SE,131,0.0,4.0,56,0.00,,,0.00,meteohub,2013-03-14 07:58:00,
2013-03-14 03:03:00,50.5,36.0,30.29,SE,131,0.0,4.0,57,0.00,,,0.00,meteohub,2013-03-14 08:03:00,
2013-03-14 03:09:00,50.7,36.5,30.29,SSE,152,0.0,4.0,58,0.00,,,0.00,meteohub,2013-03-14 08:09:00,
2013-03-14 03:14:00,50.7,36.5,30.30,SSE,164,2.0,4.0,58,0.00,,,0.00,meteohub,2013-03-14 08:14:00,
2013-03-14 03:19:00,51.4,36.7,30.29,SE,142,3.0,4.0,57,0.00,,,0.00,meteohub,2013-03-14 08:19:00,
2013-03-14 03:24:00,51.6,36.5,30.30,SSE,160,1.0,4.0,56,0.00,,,0.00,meteohub,2013-03-14 08:24:00,
2013-03-14 03:30:00,51.6,36.5,30.30,South,173,2.0,6.0,56,0.00,,,0.00,meteohub,2013-03-14 08:30:00,
2013-03-14 03:35:00,51.4,36.3,30.30,SSE,153,1.0,6.0,56,0.00,,,0.00,meteohub,2013-03-14 08:35:00,
2013-03-14 03:40:00,51.4,36.7,30.30,SSE,150,0.0,5.0,57,0.00,,,0.00,meteohub,2013-03-14 08:40:00,
2013-03-14 03:45:00,51.3,37.0,30.30,South,176,0.0,5.0,58,0.00,,,0.00,meteohub,2013-03-14 08:45:00,
2013-03-14 03:50:00,50.7,36.5,30.29,South,171,0.0,4.0,58,0.00,,,0.00,meteohub,2013-03-14 08:50:00,
2013-03-14 03:55:00,50.5,36.7,30.29,SE,146,2.0,4.0,59,0.00,,,0.00,meteohub,2013-03-14 08:55:00,
2013-03-14 04:01:00,50.5,36.7,30.29,SE,132,3.0,4.0,59,0.00,,,0.00,meteohub,2013-03-14 09:01:00,
2013-03-14 04:07:00,50.7,36.9,30.29,SSE,165,2.0,4.0,59,0.00,,,0.00,meteohub,2013-03-14 09:07:00,
2013-03-14 04:12:00,50.7,36.9,30.29,SSE,148,2.0,4.0,59,0.00,,,0.00,meteohub,2013-03-14 09:12:00,
2013-03-14 04:17:00,50.5,36.7,30.28,South,183,3.0,5.0,59,0.00,,,0.00,meteohub,2013-03-14 09:17:00,
2013-03-14 04:22:00,50.5,36.7,30.28,SSW,195,2.0,5.0,59,0.00,,,0.00,meteohub,2013-03-14 09:22:00,
2013-03-14 04:28:00,50.7,36.9,30.28,South,170,1.0,6.0,59,0.00,,,0.00,meteohub,2013-03-14 09:28:00,
2013-03-14 04:33:00,50.7,36.9,30.28,South,180,3.0,6.0,59,0.00,,,0.00,meteohub,2013-03-14 09:33:00,
2013-03-14 04:38:00,50.7,36.9,30.28,South,174,2.0,6.0,59,0.00,,,0.00,meteohub,2013-03-14 09:38:00,
2013-03-14 04:43:00,50.5,36.7,30.28,South,171,1.0,6.0,59,0.00,,,0.00,meteohub,2013-03-14 09:43:00,
2013-03-14 04:48:00,50.5,37.2,30.28,SSE,150,4.0,6.0,60,0.00,,,0.00,meteohub,2013-03-14 09:48:00,
2013-03-14 04:53:00,50.5,37.2,30.28,SSE,150,4.0,6.0,60,0.00,,,0.00,meteohub,2013-03-14 09:53:00,
2013-03-14 04:59:00,50.5,37.6,30.28,South,178,3.0,6.0,61,0.00,,,0.00,meteohub,2013-03-14 09:59:00,
2013-03-14 05:04:00,50.4,37.4,30.28,South,190,3.0,6.0,61,0.00,,,0.00,meteohub,2013-03-14 10:04:00,
2013-03-14 05:09:00,50.0,37.0,30.28,South,175,0.0,6.0,61,0.00,,,0.00,meteohub,2013-03-14 10:09:00,
2013-03-14 05:15:00,49.6,36.7,30.28,South,175,3.0,6.0,61,0.00,,,0.00,meteohub,2013-03-14 10:15:00,
2013-03-14 05:20:00,49.5,36.1,30.28,South,179,3.0,6.0,60,0.00,,,0.00,meteohub,2013-03-14 10:20:00,
2013-03-14 05:25:00,49.6,36.0,30.27,South,180,4.0,6.0,59,0.00,,,0.00,meteohub,2013-03-14 10:25:00,
2013-03-14 05:30:00,49.8,36.1,30.27,South,180,7.0,7.0,59,0.00,,,0.00,meteohub,2013-03-14 10:30:00,
2013-03-14 05:36:00,50.0,36.3,30.27,SSE,149,4.0,7.0,59,0.00,,,0.00,meteohub,2013-03-14 10:36:00,
2013-03-14 05:42:00,49.8,36.1,30.27,South,170,3.0,7.0,59,0.00,,,0.00,meteohub,2013-03-14 10:42:00,
2013-03-14 05:47:00,49.6,36.3,30.27,South,175,4.0,7.0,60,0.00,,,0.00,meteohub,2013-03-14 10:47:00,
2013-03-14 05:52:00,49.5,36.1,30.27,South,171,3.0,8.0,60,0.00,,,0.00,meteohub,2013-03-14 10:52:00,
2013-03-14 05:57:00,49.5,36.5,30.27,South,180,2.0,8.0,61,0.00,,,0.00,meteohub,2013-03-14 10:57:00,
2013-03-14 06:02:00,49.3,36.3,30.27,South,184,2.0,8.0,61,0.00,,,0.00,meteohub,2013-03-14 11:02:00,
2013-03-14 06:07:00,49.1,36.7,30.27,South,178,1.0,8.0,62,0.00,,,0.00,meteohub,2013-03-14 11:07:00,
2013-03-14 06:12:00,48.9,36.5,30.27,SSE,168,3.0,5.0,62,0.00,,,0.00,meteohub,2013-03-14 11:12:00,
2013-03-14 06:17:00,48.9,36.5,30.28,South,184,3.0,5.0,62,0.00,,,0.00,meteohub,2013-03-14 11:17:00,
2013-03-14 06:22:00,49.1,36.7,30.28,South,169,3.0,5.0,62,0.00,,,0.00,meteohub,2013-03-14 11:22:00,
2013-03-14 06:27:00,49.3,36.3,30.28,South,181,5.0,5.0,61,0.00,,,0.00,meteohub,2013-03-14 11:27:00,
2013-03-14 06:32:00,49.3,36.3,30.28,South,187,3.0,5.0,61,0.00,,,0.00,meteohub,2013-03-14 11:32:00,
2013-03-14 06:38:00,49.3,36.9,30.28,South,189,4.0,7.0,62,0.00,,,0.00,meteohub,2013-03-14 11:38:00,
2013-03-14 06:43:00,49.1,36.7,30.28,South,178,5.0,7.0,62,0.00,,,0.00,meteohub,2013-03-14 11:43:00,
2013-03-14 06:48:00,49.1,36.7,30.28,South,186,4.0,7.0,62,0.00,,,0.00,meteohub,2013-03-14 11:48:00,
2013-03-14 06:54:00,48.9,36.9,30.28,South,178,6.0,7.0,63,0.00,,,0.00,meteohub,2013-03-14 11:54:00,
2013-03-14 06:59:00,48.9,36.9,30.28,SSE,164,6.0,8.0,63,0.00,,,0.00,meteohub,2013-03-14 11:59:00,
2013-03-14 07:04:00,48.9,36.9,30.28,South,188,8.0,8.0,63,0.00,,,0.00,meteohub,2013-03-14 12:04:00,
2013-03-14 07:09:00,48.9,36.9,30.28,South,191,5.0,8.0,63,0.00,,,0.00,meteohub,2013-03-14 12:09:00,
2013-03-14 07:14:00,48.7,36.7,30.28,SSW,192,2.0,8.0,63,0.00,,,0.00,meteohub,2013-03-14 12:14:00,
2013-03-14 07:19:00,48.6,36.9,30.28,South,180,3.0,8.0,64,0.00,,,0.00,meteohub,2013-03-14 12:19:00,
2013-03-14 07:25:00,48.4,37.2,30.29,South,182,2.0,7.0,65,0.00,,,0.00,meteohub,2013-03-14 12:25:00,
2013-03-14 07:30:00,48.2,37.0,30.29,SSW,196,4.0,7.0,65,0.00,,,0.00,meteohub,2013-03-14 12:30:00,
2013-03-14 07:35:00,48.0,36.9,30.29,SSW,192,4.0,7.0,65,0.00,,,0.00,meteohub,2013-03-14 12:35:00,
2013-03-14 07:40:00,48.0,36.9,30.29,South,187,2.0,7.0,65,0.00,,,0.00,meteohub,2013-03-14 12:40:00,
2013-03-14 07:46:00,47.7,36.9,30.29,SSW,192,3.0,7.0,66,0.00,,,0.00,meteohub,2013-03-14 12:46:00,
2013-03-14 07:51:00,47.7,36.9,30.29,South,186,1.0,6.0,66,0.00,,,0.00,meteohub,2013-03-14 12:51:00,
2013-03-14 07:56:00,47.7,37.2,30.30,South,186,3.0,6.0,67,0.00,,,0.00,meteohub,2013-03-14 12:56:00,
2013-03-14 08:01:00,47.7,37.2,30.30,South,180,3.0,6.0,67,0.00,,,0.00,meteohub,2013-03-14 13:01:00,
2013-03-14 08:07:00,47.8,37.4,30.30,South,186,3.0,6.0,67,0.00,,,0.00,meteohub,2013-03-14 13:07:00,
2013-03-14 08:12:00,48.0,37.6,30.30,South,188,3.0,6.0,67,0.00,,,0.00,meteohub,2013-03-14 13:12:00,
2013-03-14 08:17:00,47.8,37.8,30.30,South,189,2.0,7.0,68,0.00,,,0.00,meteohub,2013-03-14 13:17:00,
2013-03-14 08:23:00,47.8,37.8,30.31,SSW,192,2.0,7.0,68,0.00,,,0.00,meteohub,2013-03-14 13:23:00,
2013-03-14 08:28:00,48.0,38.3,30.31,South,188,1.0,7.0,69,0.00,,,0.00,meteohub,2013-03-14 13:28:00,
2013-03-14 08:33:00,48.4,38.3,30.31,South,174,6.0,6.0,68,0.00,,,0.00,meteohub,2013-03-14 13:33:00,
2013-03-14 08:38:00,48.9,38.5,30.31,South,175,5.0,6.0,67,0.00,,,0.00,meteohub,2013-03-14 13:38:00,
2013-03-14 08:44:00,49.6,38.7,30.32,South,191,2.0,6.0,66,0.00,,,0.00,meteohub,2013-03-14 13:44:00,
2013-03-14 08:49:00,50.2,38.8,30.32,SSW,201,6.0,6.0,65,0.00,,,0.00,meteohub,2013-03-14 13:49:00,
2013-03-14 08:54:00,50.5,38.8,30.32,South,184,2.0,7.0,64,0.00,,,0.00,meteohub,2013-03-14 13:54:00,
2013-03-14 08:59:00,51.1,38.8,30.32,South,178,2.0,7.0,63,0.00,,,0.00,meteohub,2013-03-14 13:59:00,
2013-03-14 09:04:00,51.4,39.2,30.32,SE,146,5.0,7.0,63,0.00,,,0.00,meteohub,2013-03-14 14:04:00,
2013-03-14 09:10:00,51.8,39.6,30.32,SSW,197,7.0,7.0,63,0.00,,,0.00,meteohub,2013-03-14 14:10:00,
2013-03-14 09:15:00,52.2,39.6,30.33,South,187,6.0,9.0,62,0.00,,,0.00,meteohub,2013-03-14 14:15:00,
2013-03-14 09:21:00,52.5,40.3,30.33,SSW,196,5.0,9.0,63,0.00,,,0.00,meteohub,2013-03-14 14:21:00,
2013-03-14 09:27:00,53.2,40.1,30.33,South,182,4.0,9.0,61,0.00,,,0.00,meteohub,2013-03-14 14:27:00,
2013-03-14 09:32:00,53.8,40.6,30.33,South,181,4.0,10.0,61,0.00,,,0.00,meteohub,2013-03-14 14:32:00,
2013-03-14 09:37:00,54.1,40.6,30.33,SSW,193,4.0,10.0,60,0.00,,,0.00,meteohub,2013-03-14 14:37:00,
2013-03-14 09:42:00,54.9,41.2,30.33,South,186,6.0,10.0,60,0.00,,,0.00,meteohub,2013-03-14 14:42:00,
2013-03-14 09:47:00,55.6,41.5,30.33,SSW,192,8.0,10.0,59,0.00,,,0.00,meteohub,2013-03-14 14:47:00,
2013-03-14 09:52:00,56.1,41.5,30.33,SSW,198,4.0,11.0,58,0.00,,,0.00,meteohub,2013-03-14 14:52:00,
2013-03-14 09:57:00,57.0,41.5,30.32,South,183,1.0,11.0,56,0.00,,,0.00,meteohub,2013-03-14 14:57:00,
2013-03-14 10:02:00,57.6,41.9,30.32,SW,221,8.0,11.0,56,0.00,,,0.00,meteohub,2013-03-14 15:02:00,
2013-03-14 10:08:00,58.5,42.4,30.32,SSW,202,7.0,11.0,55,0.00,,,0.00,meteohub,2013-03-14 15:08:00,
2013-03-14 10:13:00,59.2,43.5,30.32,SSW,196,5.0,11.0,56,0.00,,,0.00,meteohub,2013-03-14 15:13:00,
2013-03-14 10:18:00,59.4,43.2,30.32,SW,219,8.0,14.0,55,0.00,,,0.00,meteohub,2013-03-14 15:18:00,
2013-03-14 10:23:00,59.7,44.1,30.32,SSW,192,10.0,14.0,56,0.00,,,0.00,meteohub,2013-03-14 15:23:00,
2013-03-14 10:29:00,60.3,43.5,30.32,SSW,208,5.0,14.0,54,0.00,,,0.00,meteohub,2013-03-14 15:29:00,
2013-03-14 10:34:00,60.8,44.1,30.32,South,180,10.0,15.0,54,0.00,,,0.00,meteohub,2013-03-14 15:34:00,
2013-03-14 10:39:00,61.3,44.1,30.32,SSW,200,7.0,15.0,53,0.00,,,0.00,meteohub,2013-03-14 15:39:00,
2013-03-14 10:45:00,61.3,43.0,30.32,SW,220,6.0,17.0,51,0.00,,,0.00,meteohub,2013-03-14 15:45:00,
2013-03-14 10:50:00,61.7,43.3,30.32,SW,222,11.0,17.0,51,0.00,,,0.00,meteohub,2013-03-14 15:50:00,
2013-03-14 10:55:00,62.1,44.2,30.32,SW,230,7.0,17.0,52,0.00,,,0.00,meteohub,2013-03-14 15:55:00,
2013-03-14 11:00:00,62.8,44.4,30.31,South,177,7.0,19.0,51,0.00,,,0.00,meteohub,2013-03-14 16:00:00,
2013-03-14 11:06:00,63.1,45.1,30.31,South,180,11.0,19.0,52,0.00,,,0.00,meteohub,2013-03-14 16:06:00,
2013-03-14 11:11:00,63.9,44.8,30.31,SSW,202,12.0,14.0,50,0.00,,,0.00,meteohub,2013-03-14 16:11:00,
2013-03-14 11:16:00,64.0,44.4,30.31,SW,221,12.0,14.0,49,0.00,,,0.00,meteohub,2013-03-14 16:16:00,
2013-03-14 11:22:00,64.6,44.4,30.30,South,189,8.0,22.0,48,0.00,,,0.00,meteohub,2013-03-14 16:22:00,
2013-03-14 11:27:00,65.3,45.1,30.30,SSW,197,11.0,22.0,48,0.00,,,0.00,meteohub,2013-03-14 16:27:00,
2013-03-14 11:32:00,65.8,45.7,30.30,SSW,195,8.0,22.0,48,0.00,,,0.00,meteohub,2013-03-14 16:32:00,
2013-03-14 11:37:00,66.9,45.5,30.30,SW,223,9.0,18.0,46,0.00,,,0.00,meteohub,2013-03-14 16:37:00,
2013-03-14 11:42:00,67.3,45.9,30.30,SSW,212,13.0,18.0,46,0.00,,,0.00,meteohub,2013-03-14 16:42:00,
2013-03-14 11:47:00,67.3,45.9,30.30,SSW,202,7.0,18.0,46,0.00,,,0.00,meteohub,2013-03-14 16:47:00,
2013-03-14 11:52:00,67.6,46.8,30.30,SW,226,11.0,18.0,47,0.00,,,0.00,meteohub,2013-03-14 16:52:00,
2013-03-14 11:58:00,67.8,46.9,30.29,SSW,196,8.0,20.0,47,0.00,,,0.00,meteohub,2013-03-14 16:58:00,
2013-03-14 12:03:00,68.5,46.9,30.29,SSW,204,10.0,20.0,46,0.00,,,0.00,meteohub,2013-03-14 17:03:00,
2013-03-14 12:08:00,69.3,47.7,30.29,SW,231,13.0,20.0,46,0.00,,,0.00,meteohub,2013-03-14 17:08:00,
2013-03-14 12:14:00,69.4,47.8,30.29,SW,219,7.0,19.0,46,0.00,,,0.00,meteohub,2013-03-14 17:14:00,
2013-03-14 12:19:00,70.0,47.1,30.29,SW,223,12.0,19.0,44,0.00,,,0.00,meteohub,2013-03-14 17:19:00,
2013-03-14 12:24:00,70.2,46.6,30.28,SSW,199,14.0,19.0,43,0.00,,,0.00,meteohub,2013-03-14 17:24:00,
2013-03-14 12:30:00,70.7,47.7,30.28,SSW,211,10.0,19.0,44,0.00,,,0.00,meteohub,2013-03-14 17:30:00,
2013-03-14 12:35:00,71.4,47.8,30.28,SSW,211,8.0,22.0,43,0.00,,,0.00,meteohub,2013-03-14 17:35:00,
2013-03-14 12:40:00,71.2,46.4,30.28,South,190,13.0,22.0,41,0.00,,,0.00,meteohub,2013-03-14 17:40:00,
2013-03-14 12:46:00,71.6,46.6,30.28,SSW,209,12.0,22.0,41,0.00,,,0.00,meteohub,2013-03-14 17:46:00,
2013-03-14 12:51:00,71.8,46.2,30.27,SSW,192,13.0,21.0,40,0.00,,,0.00,meteohub,2013-03-14 17:51:00,
2013-03-14 12:57:00,72.7,46.9,30.27,SW,218,12.0,21.0,40,0.00,,,0.00,meteohub,2013-03-14 17:57:00,
2013-03-14 13:02:00,72.5,45.5,30.27,SSW,193,9.0,21.0,38,0.00,,,0.00,meteohub,2013-03-14 18:02:00,
2013-03-14 13:07:00,72.7,45.7,30.27,SW,228,11.0,21.0,38,0.00,,,0.00,meteohub,2013-03-14 18:07:00,
2013-03-14 13:12:00,72.9,45.7,30.27,South,186,9.0,19.0,38,0.00,,,0.00,meteohub,2013-03-14 18:12:00,
2013-03-14 13:17:00,73.6,46.4,30.27,SSW,200,8.0,19.0,38,0.00,,,0.00,meteohub,2013-03-14 18:17:00,
2013-03-14 13:22:00,73.8,47.3,30.27,SW,232,13.0,19.0,39,0.00,,,0.00,meteohub,2013-03-14 18:22:00,
2013-03-14 13:28:00,74.1,46.9,30.26,SSW,209,6.0,14.0,38,0.00,,,0.00,meteohub,2013-03-14 18:28:00,
2013-03-14 13:33:00,73.8,46.6,30.26,South,174,11.0,14.0,38,0.00,,,0.00,meteohub,2013-03-14 18:33:00,
2013-03-14 13:38:00,73.9,48.0,30.26,South,181,10.0,14.0,40,0.00,,,0.00,meteohub,2013-03-14 18:38:00,
2013-03-14 13:43:00,74.7,48.0,30.25,SSW,196,6.0,19.0,39,0.00,,,0.00,meteohub,2013-03-14 18:43:00,
2013-03-14 13:49:00,75.0,48.4,30.25,SSW,205,9.0,19.0,39,0.00,,,0.00,meteohub,2013-03-14 18:49:00,
2013-03-14 13:54:00,74.7,46.6,30.25,SSW,204,18.0,19.0,37,0.00,,,0.00,meteohub,2013-03-14 18:54:00,
2013-03-14 13:59:00,73.9,46.8,30.25,SSW,205,8.0,19.0,38,0.00,,,0.00,meteohub,2013-03-14 18:59:00,
2013-03-14 14:05:00,74.7,48.0,30.24,SW,226,15.0,19.0,39,0.00,,,0.00,meteohub,2013-03-14 19:05:00,
2013-03-14 14:10:00,75.0,47.7,30.24,SW,218,5.0,20.0,38,0.00,,,0.00,meteohub,2013-03-14 19:10:00,
2013-03-14 14:15:00,75.6,49.5,30.23,South,185,17.0,23.0,40,0.00,,,0.00,meteohub,2013-03-14 19:15:00,
2013-03-14 14:20:00,75.6,47.5,30.23,South,190,8.0,23.0,37,0.00,,,0.00,meteohub,2013-03-14 19:20:00,
2013-03-14 14:25:00,75.4,47.3,30.22,SW,236,12.0,23.0,37,0.00,,,0.00,meteohub,2013-03-14 19:25:00,
2013-03-14 14:31:00,75.4,48.0,30.22,SSW,201,8.0,21.0,38,0.00,,,0.00,meteohub,2013-03-14 19:31:00,
2013-03-14 14:36:00,75.6,48.9,30.22,SSW,206,11.0,21.0,39,0.00,,,0.00,meteohub,2013-03-14 19:36:00,
2013-03-14 14:41:00,75.7,48.4,30.21,SW,229,8.0,16.0,38,0.00,,,0.00,meteohub,2013-03-14 19:41:00,
2013-03-14 14:47:00,76.1,48.0,30.21,SSW,212,6.0,16.0,37,0.00,,,0.00,meteohub,2013-03-14 19:47:00,
2013-03-14 14:52:00,75.9,48.6,30.21,SSW,209,7.0,20.0,38,0.00,,,0.00,meteohub,2013-03-14 19:52:00,
2013-03-14 14:57:00,76.1,48.6,30.21,SW,229,12.0,20.0,38,0.00,,,0.00,meteohub,2013-03-14 19:57:00,
2013-03-14 15:02:00,75.9,49.1,30.20,SW,215,4.0,20.0,39,0.00,,,0.00,meteohub,2013-03-14 20:02:00,
2013-03-14 15:08:00,76.3,49.5,30.20,South,187,12.0,19.0,39,0.00,,,0.00,meteohub,2013-03-14 20:08:00,
2013-03-14 15:13:00,76.8,50.7,30.20,WSW,239,11.0,19.0,40,0.00,,,0.00,meteohub,2013-03-14 20:13:00,
2013-03-14 15:18:00,77.2,49.6,30.19,SW,233,6.0,19.0,38,0.00,,,0.00,meteohub,2013-03-14 20:18:00,
2013-03-14 15:23:00,77.4,49.1,30.19,SSW,194,10.0,19.0,37,0.00,,,0.00,meteohub,2013-03-14 20:23:00,
2013-03-14 15:28:00,76.8,48.6,30.19,SSW,194,10.0,20.0,37,0.00,,,0.00,meteohub,2013-03-14 20:28:00,
2013-03-14 15:34:00,76.8,47.8,30.19,SW,235,14.0,20.0,36,0.00,,,0.00,meteohub,2013-03-14 20:34:00,
2013-03-14 15:39:00,76.8,47.8,30.19,SSW,205,8.0,20.0,36,0.00,,,0.00,meteohub,2013-03-14 20:39:00,
2013-03-14 15:44:00,77.4,50.5,30.19,SSW,206,9.0,18.0,39,0.00,,,0.00,meteohub,2013-03-14 20:44:00,
2013-03-14 15:50:00,76.6,47.7,30.19,SSW,211,8.0,17.0,36,0.00,,,0.00,meteohub,2013-03-14 20:50:00,
2013-03-14 15:55:00,76.6,48.4,30.18,South,172,10.0,17.0,37,0.00,,,0.00,meteohub,2013-03-14 20:55:00,
2013-03-14 16:00:00,77.0,49.5,30.18,SSW,192,11.0,17.0,38,0.00,,,0.00,meteohub,2013-03-14 21:00:00,
2013-03-14 16:06:00,77.4,49.8,30.18,SSW,192,8.0,17.0,38,0.00,,,0.00,meteohub,2013-03-14 21:06:00,
2013-03-14 16:11:00,76.5,48.2,30.18,SSW,200,11.0,21.0,37,0.00,,,0.00,meteohub,2013-03-14 21:11:00,
2013-03-14 16:16:00,76.8,47.8,30.17,SSW,205,13.0,20.0,36,0.00,,,0.00,meteohub,2013-03-14 21:16:00,
2013-03-14 16:21:00,76.6,46.9,30.18,SSW,209,15.0,20.0,35,0.00,,,0.00,meteohub,2013-03-14 21:21:00,
2013-03-14 16:27:00,76.6,47.7,30.18,South,184,8.0,20.0,36,0.00,,,0.00,meteohub,2013-03-14 21:27:00,
2013-03-14 16:32:00,77.2,48.9,30.17,SW,214,7.0,20.0,37,0.00,,,0.00,meteohub,2013-03-14 21:32:00,
2013-03-14 16:37:00,77.2,47.5,30.17,South,184,5.0,20.0,35,0.00,,,0.00,meteohub,2013-03-14 21:37:00,
2013-03-14 16:42:00,76.8,47.8,30.17,SW,219,7.0,17.0,36,0.00,,,0.00,meteohub,2013-03-14 21:42:00,
2013-03-14 16:47:00,76.8,49.3,30.16,SSW,195,8.0,17.0,38,0.00,,,0.00,meteohub,2013-03-14 21:47:00,
2013-03-14 16:52:00,77.2,49.6,30.17,SSW,202,11.0,17.0,38,0.00,,,0.00,meteohub,2013-03-14 21:52:00,
2013-03-14 16:57:00,77.2,48.2,30.16,WSW,238,9.0,17.0,36,0.00,,,0.00,meteohub,2013-03-14 21:57:00,
2013-03-14 17:02:00,76.8,48.6,30.16,SW,234,7.0,17.0,37,0.00,,,0.00,meteohub,2013-03-14 22:02:00,
2013-03-14 17:07:00,76.8,48.6,30.16,SW,221,11.0,17.0,37,0.00,,,0.00,meteohub,2013-03-14 22:07:00,
2013-03-14 17:12:00,76.5,48.2,30.16,SW,223,10.0,17.0,37,0.00,,,0.00,meteohub,2013-03-14 22:12:00,
2013-03-14 17:17:00,76.5,48.2,30.16,SSW,202,7.0,17.0,37,0.00,,,0.00,meteohub,2013-03-14 22:17:00,
2013-03-14 17:23:00,76.5,48.9,30.16,South,184,9.0,17.0,38,0.00,,,0.00,meteohub,2013-03-14 22:23:00,
2013-03-14 17:28:00,76.3,49.5,30.16,SSW,208,8.0,17.0,39,0.00,,,0.00,meteohub,2013-03-14 22:28:00,
2013-03-14 17:34:00,76.3,48.7,30.16,SSW,204,7.0,17.0,38,0.00,,,0.00,meteohub,2013-03-14 22:34:00,
2013-03-14 17:39:00,75.9,48.6,30.16,SSW,204,6.0,18.0,38,0.00,,,0.00,meteohub,2013-03-14 22:39:00,
2013-03-14 17:44:00,75.6,47.5,30.16,SSE,166,9.0,18.0,37,0.00,,,0.00,meteohub,2013-03-14 22:44:00,
2013-03-14 17:49:00,75.6,48.2,30.16,SSW,208,5.0,19.0,38,0.00,,,0.00,meteohub,2013-03-14 22:49:00,
2013-03-14 17:55:00,75.6,48.2,30.16,SSE,155,9.0,19.0,38,0.00,,,0.00,meteohub,2013-03-14 22:55:00,
2013-03-14 18:00:00,75.6,48.2,30.16,South,186,12.0,19.0,38,0.00,,,0.00,meteohub,2013-03-14 23:00:00,
2013-03-14 18:05:00,75.4,48.0,30.15,SSW,213,5.0,19.0,38,0.00,,,0.00,meteohub,2013-03-14 23:05:00,
2013-03-14 18:10:00,75.4,48.7,30.15,SSW,204,7.0,19.0,39,0.00,,,0.00,meteohub,2013-03-14 23:10:00,
2013-03-14 18:16:00,75.4,48.7,30.15,SSW,209,13.0,16.0,39,0.00,,,0.00,meteohub,2013-03-14 23:16:00,
2013-03-14 18:21:00,74.8,48.2,30.15,SSW,195,9.0,16.0,39,0.00,,,0.00,meteohub,2013-03-14 23:21:00,
2013-03-14 18:26:00,74.8,48.2,30.15,SSW,209,14.0,16.0,39,0.00,,,0.00,meteohub,2013-03-14 23:26:00,
2013-03-14 18:31:00,74.7,48.7,30.15,South,170,8.0,19.0,40,0.00,,,0.00,meteohub,2013-03-14 23:31:00,
2013-03-14 18:37:00,74.3,48.4,30.15,South,189,7.0,19.0,40,0.00,,,0.00,meteohub,2013-03-14 23:37:00,
2013-03-14 18:42:00,74.3,48.4,30.15,South,175,10.0,19.0,40,0.00,,,0.00,meteohub,2013-03-14 23:42:00,
2013-03-14 18:47:00,74.1,48.9,30.15,South,184,9.0,19.0,41,0.00,,,0.00,meteohub,2013-03-14 23:47:00,
2013-03-14 18:52:00,73.9,48.7,30.15,South,182,13.0,17.0,41,0.00,,,0.00,meteohub,2013-03-14 23:52:00,
2013-03-14 18:57:00,73.8,48.6,30.15,SSW,192,6.0,17.0,41,0.00,,,0.00,meteohub,2013-03-14 23:57:00,
2013-03-14 19:02:00,73.6,48.4,30.15,South,173,13.0,17.0,41,0.00,,,0.00,meteohub,2013-03-15 00:02:00,
2013-03-14 19:07:00,73.2,48.0,30.15,South,179,6.0,17.0,41,0.00,,,0.00,meteohub,2013-03-15 00:07:00,
2013-03-14 19:13:00,72.7,47.7,30.14,SSE,163,9.0,17.0,41,0.00,,,0.00,meteohub,2013-03-15 00:13:00,
2013-03-14 19:18:00,72.3,47.3,30.14,South,182,6.0,18.0,41,0.00,,,0.00,meteohub,2013-03-15 00:18:00,
2013-03-14 19:23:00,72.0,47.7,30.14,SSW,193,5.0,18.0,42,0.00,,,0.00,meteohub,2013-03-15 00:23:00,
2013-03-14 19:29:00,71.6,47.3,30.14,South,186,8.0,15.0,42,0.00,,,0.00,meteohub,2013-03-15 00:29:00,
2013-03-14 19:34:00,71.2,46.9,30.15,South,186,9.0,15.0,42,0.00,,,0.00,meteohub,2013-03-15 00:34:00,
2013-03-14 19:39:00,70.9,47.3,30.15,South,185,8.0,15.0,43,0.00,,,0.00,meteohub,2013-03-15 00:39:00,
2013-03-14 19:44:00,70.7,47.1,30.14,SSW,192,7.0,15.0,43,0.00,,,0.00,meteohub,2013-03-15 00:44:00,
2013-03-14 19:49:00,70.2,46.6,30.14,South,184,7.0,14.0,43,0.00,,,0.00,meteohub,2013-03-15 00:49:00,
2013-03-14 19:55:00,70.0,47.1,30.15,SSW,193,6.0,14.0,44,0.00,,,0.00,meteohub,2013-03-15 00:55:00,
2013-03-14 20:00:00,69.8,46.9,30.15,SSW,196,6.0,13.0,44,0.00,,,0.00,meteohub,2013-03-15 01:00:00,
2013-03-14 20:05:00,69.4,47.1,30.15,South,180,7.0,13.0,45,0.00,,,0.00,meteohub,2013-03-15 01:05:00,
2013-03-14 20:11:00,69.1,46.8,30.15,SSW,192,6.0,13.0,45,0.00,,,0.00,meteohub,2013-03-15 01:11:00,
2013-03-14 20:16:00,68.7,46.6,30.15,South,185,4.0,9.0,45,0.00,,,0.00,meteohub,2013-03-15 01:16:00,
2013-03-14 20:21:00,68.5,46.9,30.15,South,173,6.0,9.0,46,0.00,,,0.00,meteohub,2013-03-15 01:21:00,
2013-03-14 20:26:00,68.2,47.1,30.15,South,171,6.0,9.0,47,0.00,,,0.00,meteohub,2013-03-15 01:26:00,
2013-03-14 20:31:00,68.0,46.9,30.14,South,188,4.0,9.0,47,0.00,,,0.00,meteohub,2013-03-15 01:31:00,
2013-03-14 20:36:00,67.5,47.1,30.14,South,173,5.0,9.0,48,0.00,,,0.00,meteohub,2013-03-15 01:36:00,
2013-03-14 20:42:00,67.3,46.9,30.15,SSE,167,7.0,9.0,48,0.00,,,0.00,meteohub,2013-03-15 01:42:00,
2013-03-14 20:47:00,67.3,47.5,30.14,South,179,4.0,8.0,49,0.00,,,0.00,meteohub,2013-03-15 01:47:00,
2013-03-14 20:52:00,67.1,47.3,30.14,SSE,165,7.0,8.0,49,0.00,,,0.00,meteohub,2013-03-15 01:52:00,
2013-03-14 20:58:00,66.7,46.9,30.14,South,182,4.0,10.0,49,0.00,,,0.00,meteohub,2013-03-15 01:58:00,
2013-03-14 21:03:00,66.7,47.5,30.14,South,185,4.0,10.0,50,0.00,,,0.00,meteohub,2013-03-15 02:03:00,
2013-03-14 21:08:00,66.4,47.7,30.14,SSW,199,7.0,10.0,51,0.00,,,0.00,meteohub,2013-03-15 02:08:00,
2013-03-14 21:13:00,66.0,47.3,30.14,SSE,165,7.0,10.0,51,0.00,,,0.00,meteohub,2013-03-15 02:13:00,
2013-03-14 21:18:00,66.0,47.3,30.14,South,173,3.0,10.0,51,0.00,,,0.00,meteohub,2013-03-15 02:18:00,
2013-03-14 21:24:00,65.8,47.1,30.14,SSW,192,5.0,10.0,51,0.00,,,0.00,meteohub,2013-03-15 02:24:00,
2013-03-14 21:29:00,65.8,47.7,30.14,South,183,7.0,10.0,52,0.00,,,0.00,meteohub,2013-03-15 02:29:00,
2013-03-14 21:34:00,65.7,47.5,30.14,SSW,196,6.0,10.0,52,0.00,,,0.00,meteohub,2013-03-15 02:34:00,
2013-03-14 21:40:00,65.8,47.7,30.14,South,176,5.0,10.0,52,0.00,,,0.00,meteohub,2013-03-15 02:40:00,
2013-03-14 21:45:00,65.7,48.0,30.14,SSW,192,7.0,12.0,53,0.00,,,0.00,meteohub,2013-03-15 02:45:00,
2013-03-14 21:50:00,65.5,47.8,30.14,SSW,192,4.0,12.0,53,0.00,,,0.00,meteohub,2013-03-15 02:50:00,
2013-03-14 21:56:00,65.5,47.8,30.14,SSW,192,7.0,12.0,53,0.00,,,0.00,meteohub,2013-03-15 02:56:00,
2013-03-14 22:01:00,65.5,47.5,30.14,SSW,198,6.0,9.0,52,0.00,,,0.00,meteohub,2013-03-15 03:01:00,
2013-03-14 22:07:00,65.5,47.5,30.14,South,188,3.0,9.0,52,0.00,,,0.00,meteohub,2013-03-15 03:07:00,
2013-03-14 22:12:00,65.5,47.5,30.14,South,190,5.0,9.0,52,0.00,,,0.00,meteohub,2013-03-15 03:12:00,
2013-03-14 22:18:00,65.3,47.3,30.14,SSW,193,6.0,10.0,52,0.00,,,0.00,meteohub,2013-03-15 03:18:00,
2013-03-14 22:23:00,65.1,47.1,30.14,SSW,196,5.0,10.0,52,0.00,,,0.00,meteohub,2013-03-15 03:23:00,
2013-03-14 22:28:00,65.1,47.1,30.15,SW,236,5.0,10.0,52,0.00,,,0.00,meteohub,2013-03-15 03:28:00,
2013-03-14 22:34:00,64.9,46.9,30.15,SSW,205,8.0,10.0,52,0.00,,,0.00,meteohub,2013-03-15 03:34:00,
2013-03-14 22:39:00,64.9,46.9,30.15,South,186,8.0,10.0,52,0.00,,,0.00,meteohub,2013-03-15 03:39:00,
2013-03-14 22:44:00,64.8,46.8,30.15,South,175,5.0,10.0,52,0.00,,,0.00,meteohub,2013-03-15 03:44:00,
2013-03-14 22:49:00,64.6,47.1,30.15,SSW,192,2.0,10.0,53,0.00,,,0.00,meteohub,2013-03-15 03:49:00,
2013-03-14 22:54:00,64.6,47.1,30.15,South,183,3.0,10.0,53,0.00,,,0.00,meteohub,2013-03-15 03:54:00,
2013-03-14 22:59:00,64.4,46.9,30.15,South,173,3.0,7.0,53,0.00,,,0.00,meteohub,2013-03-15 03:59:00,
2013-03-14 23:00:00,64.2,46.8,30.15,South,182,2.0,7.0,53,0.00,,,0.00,meteohub,2013-03-15 04:00:00,
2013-03-14 23:01:00,64.2,46.8,30.15,South,189,3.0,7.0,53,0.00,,,0.00,meteohub,2013-03-15 04:01:00,
2013-03-14 23:02:00,64.2,46.8,30.14,South,184,5.0,7.0,53,0.00,,,0.00,meteohub,2013-03-15 04:02:00,
2013-03-14 23:07:00,64.0,47.1,30.14,SSW,192,4.0,7.0,54,0.00,,,0.00,meteohub,2013-03-15 04:07:00,
2013-03-14 23:12:00,63.9,46.9,30.14,South,190,5.0,7.0,54,0.00,,,0.00,meteohub,2013-03-15 04:12:00,
2013-03-14 23:17:00,63.7,47.3,30.14,South,180,8.0,9.0,55,0.00,,,0.00,meteohub,2013-03-15 04:17:00,
2013-03-14 23:22:00,63.5,47.1,30.14,South,180,6.0,9.0,55,0.00,,,0.00,meteohub,2013-03-15 04:22:00,
2013-03-14 23:28:00,63.3,47.3,30.14,South,183,2.0,9.0,56,0.00,,,0.00,meteohub,2013-03-15 04:28:00,
2013-03-14 23:33:00,63.1,47.1,30.14,SSW,195,6.0,9.0,56,0.00,,,0.00,meteohub,2013-03-15 04:33:00,
2013-03-14 23:38:00,63.0,46.9,30.14,SSW,198,4.0,9.0,56,0.00,,,0.00,meteohub,2013-03-15 04:38:00,
2013-03-14 23:43:00,63.0,47.5,30.14,South,188,3.0,9.0,57,0.00,,,0.00,meteohub,2013-03-15 04:43:00,
2013-03-14 23:49:00,62.8,47.3,30.14,South,190,7.0,9.0,57,0.00,,,0.00,meteohub,2013-03-15 04:49:00,
2013-03-14 23:54:00,62.6,47.1,30.14,SSW,199,6.0,9.0,57,0.00,,,0.00,meteohub,2013-03-15 04:54:00,
2013-03-14 23:59:00,62.6,47.7,30.14,South,173,5.0,9.0,58,0.00,,,0.00,meteohub,2013-03-15 04:59:00,